View from above orbital plane
|
View from above satellite
|
Ground track
|
The orbit data is extracted from the following two-line orbital elements,
1 13819U 83010B 21101.74897288 .00000181 00000-0 79704-5 0 9994
2 13819 81.1155 330.3994 0031983 7.1459 353.0218 15.16080659 84630
Epoch (UTC): | 11 April 2021 17:58:31 |
Eccentricity: | 0.0031983 |
inclination: | 81.1155° |
perigee height: | 495 km |
apogee height: | 540 km |
right ascension of ascending node: | 330.3994° |
argument of perigee: | 7.1459° |
revolutions per day: | 15.16080659 |
mean anomaly at epoch: | 353.0218° |
orbit number at epoch: | 8463 |
The dashed part of the orbit path shows where the satellite is in the earth's shadow,
|
|